2015-10-26 00:00:58 r, 17.42m,0000000009Hz,0000050772c,0000000.110s, 013.8C,00002191
2015-10-26 00:10:58 r, 17.44m,0000000009Hz,0000052004c,0000000.113s, 013.8C,00002191
2015-10-26 00:20:58 r, 17.51m,0000000008Hz,0000055645c,0000000.121s, 013.5C,00002191
2015-10-26 00:30:58 r, 17.59m,0000000008Hz,0000059345c,0000000.129s, 013.5C,00002191
2015-10-26 00:40:57 r, 17.64m,0000000007Hz,0000062512c,0000000.136s, 013.5C,00002191
2015-10-26 00:50:57 r, 17.69m,0000000007Hz,0000065506c,0000000.142s, 013.5C,00002191
2015-10-26 01:00:57 r, 17.74m,0000000007Hz,0000068646c,0000000.149s, 013.5C,00002191
2015-10-26 01:10:57 r, 17.75m,0000000007Hz,0000069236c,0000000.150s, 013.5C,00002191
2015-10-26 01:20:57 r, 17.78m,0000000007Hz,0000070828c,0000000.154s, 013.5C,00002191
2015-10-26 01:30:58 r, 17.84m,0000000006Hz,0000074996c,0000000.163s, 013.5C,00002191
2015-10-26 01:40:58 r, 17.70m,0000000007Hz,0000066508c,0000000.144s, 013.2C,00002191
2015-10-26 01:50:58 r, 17.07m,0000000012Hz,0000037091c,0000000.080s, 013.2C,00002191
2015-10-26 02:00:57 r, 17.89m,0000000006Hz,0000078799c,0000000.171s, 013.2C,00002191
2015-10-26 02:10:58 r, 16.90m,0000000015Hz,0000031501c,0000000.068s, 013.2C,00002191
2015-10-26 02:20:59 r, 16.90m,0000000014Hz,0000031724c,0000000.069s, 013.5C,00002191
2015-10-26 02:30:57 r, 16.98m,0000000013Hz,0000033857c,0000000.073s, 013.8C,00002191
2015-10-26 02:40:57 r, 16.94m,0000000015Hz,0000032672c,0000000.071s, 014.1C,00002191
2015-10-26 02:50:58 r, 17.49m,0000000008Hz,0000054677c,0000000.119s, 014.1C,00002191
2015-10-26 03:00:58 r, 17.51m,0000000009Hz,0000055042c,0000000.119s, 014.1C,00002191
2015-10-26 03:10:57 r, 18.26m,0000000004Hz,0000110283c,0000000.239s, 014.1C,00002191
2015-10-26 03:20:57 r, 18.14m,0000000004Hz,0000098768c,0000000.214s, 013.8C,00002191
2015-10-26 03:30:57 r, 18.23m,0000000004Hz,0000107514c,0000000.233s, 013.5C,00002191
2015-10-26 03:40:58 r, 18.43m,0000000003Hz,0000129856c,0000000.282s, 013.2C,00002191
2015-10-26 03:50:58 r, 18.53m,0000000004Hz,0000142972c,0000000.310s, 012.8C,00002191
2015-10-26 04:00:58 r, 18.62m,0000000003Hz,0000152917c,0000000.332s, 012.5C,00002191
2015-10-26 04:10:57 r, 18.68m,0000000003Hz,0000162248c,0000000.352s, 012.5C,00002191
2015-10-26 04:20:58 r, 18.74m,0000000003Hz,0000171053c,0000000.371s, 012.5C,00002191
2015-10-26 04:30:58 r, 18.88m,0000000002Hz,0000193005c,0000000.419s, 012.5C,00002191
2015-10-26 04:40:58 r, 18.84m,0000000002Hz,0000187135c,0000000.406s, 012.2C,00002191
2015-10-26 04:50:58 r, 18.90m,0000000003Hz,0000197803c,0000000.429s, 012.2C,00002191
2015-10-26 05:00:58 r, 18.96m,0000000002Hz,0000208439c,0000000.452s, 011.9C,00002191
2015-10-26 05:10:57 r, 19.03m,0000000002Hz,0000222011c,0000000.482s, 011.9C,00002191
2015-10-26 05:20:59 r, 19.11m,0000000002Hz,0000237997c,0000000.516s, 011.6C,00002191
2015-10-26 05:30:57 r, 19.19m,0000000002Hz,0000257308c,0000000.558s, 011.6C,00002191
2015-10-26 05:40:58 r, 19.27m,0000000002Hz,0000278428c,0000000.604s, 011.6C,00002191
2015-10-26 05:50:59 r, 19.38m,0000000002Hz,0000309093c,0000000.671s, 011.6C,00002191
2015-10-26 06:00:58 r, 19.51m,0000000002Hz,0000347605c,0000000.754s, 011.6C,00002191
2015-10-26 06:10:58 r, 19.68m,0000000001Hz,0000404132c,0000000.877s, 011.6C,00002191
2015-10-26 06:20:59 r, 19.87m,0000000001Hz,0000481823c,0000001.046s, 011.6C,00002191
2015-10-26 06:30:57 r, 20.09m,0000000001Hz,0000592232c,0000001.285s, 011.6C,00002191
2015-10-26 06:40:57 r, 20.27m,0000000000Hz,0000690170c,0000001.498s, 011.6C,00002191
2015-10-26 06:50:58 r, 20.02m,0000000001Hz,0000553652c,0000001.202s, 011.6C,00002191
2015-10-26 07:00:57 r, 19.03m,0000000002Hz,0000222712c,0000000.483s, 011.6C,00002191
2015-10-26 07:10:58 r, 17.59m,0000000008Hz,0000059343c,0000000.129s, 011.6C,00002191
2015-10-26 07:20:59 r, 15.90m,0000000036Hz,0000012560c,0000000.027s, 011.6C,00002191
2015-10-26 07:30:57 r, 13.87m,0000000238Hz,0000000000c,0000000.000s, 011.6C,00002191
2015-10-26 07:40:58 r, 11.68m,0000001793Hz,0000000000c,0000000.000s, 011.6C,00002191
2015-10-26 07:50:58 r, 09.70m,0000011110Hz,0000000000c,0000000.000s, 011.6C,00002191
2015-10-26 08:00:57 r, 08.21m,0000043917Hz,0000000000c,0000000.000s, 011.6C,00002191
2015-10-26 08:10:57 r, 07.19m,0000112421Hz,0000000000c,0000000.000s, 011.6C,00002191
2015-10-26 08:20:57 r, 06.49m,0000215079Hz,0000000000c,0000000.000s, 011.6C,00002191
2015-10-26 08:30:58 r, 06.00m,0000337707Hz,0000000000c,0000000.000s, 011.9C,00002191
2015-10-26 08:40:57 r, 00.00m,0000462428Hz,0000000000c,0000000.000s, 012.8C,00002191
2015-10-26 08:50:59 r, 00.00m,0000573447Hz,0000000000c,0000000.000s, 013.8C,00002191
2015-10-26 09:00:57 r, 00.00m,0000596964Hz,0000000000c,0000000.000s, 014.8C,00002191
2015-10-26 09:10:57 r, 00.00m,0000596795Hz,0000000000c,0000000.000s, 015.7C,00002191
2015-10-26 09:20:57 r, 00.00m,0000596688Hz,0000000000c,0000000.000s, 017.0C,00002191
2015-10-26 09:30:58 r, 00.00m,0000596617Hz,0000000000c,0000000.000s, 018.0C,00002191
2015-10-26 09:40:58 r, 00.00m,0000596534Hz,0000000000c,0000000.000s, 019.0C,00002191
2015-10-26 09:50:57 r, 00.00m,0000596472Hz,0000000000c,0000000.000s, 019.9C,00002191
2015-10-26 10:00:57 r, 00.00m,0000596232Hz,0000000000c,0000000.000s, 021.5C,00002191
2015-10-26 10:10:58 r, 00.00m,0000596162Hz,0000000000c,0000000.000s, 022.5C,00002191
2015-10-26 10:20:57 r, 00.00m,0000596085Hz,0000000000c,0000000.000s, 023.2C,00002191
2015-10-26 10:30:58 r, 00.00m,0000596140Hz,0000000000c,0000000.000s, 023.5C,00002191
2015-10-26 10:40:57 r, 00.00m,0000595937Hz,0000000000c,0000000.000s, 024.4C,00002191
2015-10-26 10:51:00 r, 00.00m,0000595889Hz,0000000000c,0000000.000s, 024.4C,00002191
2015-10-26 11:00:58 r, 00.00m,0000595857Hz,0000000000c,0000000.000s, 024.4C,00002191
2015-10-26 11:10:58 r, 00.00m,0000595876Hz,0000000000c,0000000.000s, 024.1C,00002191
2015-10-26 11:20:59 r, 00.00m,0000595834Hz,0000000000c,0000000.000s, 023.8C,00002191
2015-10-26 11:30:57 r, 00.00m,0000595806Hz,0000000000c,0000000.000s, 024.8C,00002191
2015-10-26 11:40:57 r, 00.00m,0000595754Hz,0000000000c,0000000.000s, 026.1C,00002191
2015-10-26 11:50:59 r, 00.00m,0000595655Hz,0000000000c,0000000.000s, 027.0C,00002191
2015-10-26 12:00:58 r, 00.00m,0000595588Hz,0000000000c,0000000.000s, 028.0C,00002191
2015-10-26 12:10:57 r, 00.00m,0000595470Hz,0000000000c,0000000.000s, 028.6C,00002191
2015-10-26 12:20:58 r, 00.00m,0000595240Hz,0000000000c,0000000.000s, 029.9C,00002191
2015-10-26 12:30:58 r, 00.00m,0000595321Hz,0000000000c,0000000.000s, 030.2C,00002191
2015-10-26 12:40:58 r, 00.00m,0000595201Hz,0000000000c,0000000.000s, 030.9C,00002191
2015-10-26 12:50:57 r, 00.00m,0000595197Hz,0000000000c,0000000.000s, 032.5C,00002191
2015-10-26 13:00:58 r, 00.00m,0000595200Hz,0000000000c,0000000.000s, 031.9C,00002191
2015-10-26 13:10:58 r, 00.00m,0000595199Hz,0000000000c,0000000.000s, 032.5C,00002191
2015-10-26 13:20:58 r, 00.00m,0000595196Hz,0000000000c,0000000.000s, 032.5C,00002191
2015-10-26 13:30:57 r, 00.00m,0000595189Hz,0000000000c,0000000.000s, 032.5C,00002191
2015-10-26 13:40:58 r, 00.00m,0000595144Hz,0000000000c,0000000.000s, 032.5C,00002191
2015-10-26 13:50:58 r, 00.00m,0000595301Hz,0000000000c,0000000.000s, 029.9C,00002191
2015-10-26 14:00:57 r, 00.00m,0000595739Hz,0000000000c,0000000.000s, 026.7C,00002191
2015-10-26 14:10:58 r, 00.00m,0000595897Hz,0000000000c,0000000.000s, 025.1C,00002191
2015-10-26 14:20:58 r, 00.00m,0000595963Hz,0000000000c,0000000.000s, 024.4C,00002191
2015-10-26 14:30:57 r, 00.00m,0000596059Hz,0000000000c,0000000.000s, 023.8C,00002191
2015-10-26 14:40:57 r, 00.00m,0000596056Hz,0000000000c,0000000.000s, 023.5C,00002191
2015-10-26 14:50:57 r, 00.00m,0000596002Hz,0000000000c,0000000.000s, 023.5C,00002191
2015-10-26 15:00:58 r, 00.00m,0000596106Hz,0000000000c,0000000.000s, 023.5C,00002191
2015-10-26 15:10:58 r, 00.00m,0000595911Hz,0000000000c,0000000.000s, 024.4C,00002191
2015-10-26 15:20:58 r, 00.00m,0000595750Hz,0000000000c,0000000.000s, 026.4C,00002191
2015-10-26 15:30:57 r, 00.00m,0000595573Hz,0000000000c,0000000.000s, 027.7C,00002191
2015-10-26 15:40:57 r, 00.00m,0000595554Hz,0000000000c,0000000.000s, 028.3C,00002191
2015-10-26 15:50:57 r, 00.00m,0000595582Hz,0000000000c,0000000.000s, 028.6C,00002191
2015-10-26 16:00:58 r, 00.00m,0000595572Hz,0000000000c,0000000.000s, 028.6C,00002191
2015-10-26 16:10:58 r, 00.00m,0000595643Hz,0000000000c,0000000.000s, 028.3C,00002191
2015-10-26 16:20:58 r, 00.00m,0000595719Hz,0000000000c,0000000.000s, 027.7C,00002191
2015-10-26 16:30:58 r, 00.00m,0000595873Hz,0000000000c,0000000.000s, 026.4C,00002191
2015-10-26 16:40:57 r, 00.00m,0000595879Hz,0000000000c,0000000.000s, 025.7C,00002191
2015-10-26 16:50:57 r, 00.00m,0000595943Hz,0000000000c,0000000.000s, 024.8C,00002191
2015-10-26 17:00:57 r, 00.00m,0000596051Hz,0000000000c,0000000.000s, 024.1C,00002191
2015-10-26 17:10:57 r, 00.00m,0000596042Hz,0000000000c,0000000.000s, 023.8C,00002191
2015-10-26 17:20:58 r, 00.00m,0000596060Hz,0000000000c,0000000.000s, 023.5C,00002191
2015-10-26 17:30:57 r, 00.00m,0000596114Hz,0000000000c,0000000.000s, 023.2C,00002191
2015-10-26 17:40:58 r, 00.00m,0000596199Hz,0000000000c,0000000.000s, 022.8C,00002191
2015-10-26 17:50:58 r, 00.00m,0000412547Hz,0000000000c,0000000.000s, 022.2C,00002191
2015-10-26 18:00:57 r, 06.43m,0000226439Hz,0000000000c,0000000.000s, 021.9C,00002191
2015-10-26 18:10:58 r, 07.16m,0000116155Hz,0000000000c,0000000.000s, 020.9C,00002191
2015-10-26 18:20:58 r, 08.08m,0000049788Hz,0000000000c,0000000.000s, 020.6C,00002191
2015-10-26 18:30:58 r, 09.46m,0000013862Hz,0000000000c,0000000.000s, 019.6C,00002191
2015-10-26 18:40:58 r, 11.36m,0000002419Hz,0000000000c,0000000.000s, 019.3C,00002191
2015-10-26 18:50:57 r, 13.54m,0000000324Hz,0000000000c,0000000.000s, 018.6C,00002191
2015-10-26 19:00:58 r, 15.52m,0000000053Hz,0000008889c,0000000.019s, 018.3C,00002191
2015-10-26 19:10:58 r, 16.90m,0000000014Hz,0000031656c,0000000.069s, 018.0C,00002191
2015-10-26 19:20:57 r, 17.90m,0000000006Hz,0000079625c,0000000.173s, 018.0C,00002191
2015-10-26 19:30:58 r, 18.34m,0000000004Hz,0000119006c,0000000.258s, 018.0C,00002191
2015-10-26 19:40:58 r, 18.46m,0000000004Hz,0000133570c,0000000.290s, 017.7C,00002191
2015-10-26 19:50:57 r, 18.12m,0000000004Hz,0000096809c,0000000.210s, 017.7C,00002191
2015-10-26 20:00:57 r, 18.37m,0000000003Hz,0000121885c,0000000.265s, 017.7C,00002191
2015-10-26 20:10:58 r, 18.16m,0000000005Hz,0000100777c,0000000.219s, 017.4C,00002191
2015-10-26 20:20:58 r, 17.84m,0000000007Hz,0000075009c,0000000.163s, 017.4C,00002191
2015-10-26 20:30:57 r, 17.84m,0000000006Hz,0000075198c,0000000.163s, 017.4C,00002191
2015-10-26 20:40:57 r, 17.66m,0000000008Hz,0000063365c,0000000.138s, 017.4C,00002191
2015-10-26 20:50:58 r, 17.74m,0000000006Hz,0000068226c,0000000.148s, 017.0C,00002191
2015-10-26 21:00:58 r, 17.72m,0000000007Hz,0000067392c,0000000.146s, 016.7C,00002191
2015-10-26 21:10:58 r, 17.79m,0000000006Hz,0000071971c,0000000.156s, 016.7C,00002191
2015-10-26 21:20:57 r, 17.80m,0000000007Hz,0000072307c,0000000.157s, 016.4C,00002191
2015-10-26 21:30:59 r, 17.66m,0000000007Hz,0000063340c,0000000.137s, 016.1C,00002191
2015-10-26 21:40:57 r, 17.67m,0000000007Hz,0000064014c,0000000.139s, 015.4C,00002191
2015-10-26 21:50:58 r, 17.54m,0000000008Hz,0000056724c,0000000.123s, 015.4C,00002191
2015-10-26 22:00:58 r, 17.39m,0000000009Hz,0000049736c,0000000.108s, 015.1C,00002191
2015-10-26 22:10:58 r, 17.31m,0000000010Hz,0000046066c,0000000.100s, 014.8C,00002191
2015-10-26 22:20:58 r, 17.09m,0000000013Hz,0000037482c,0000000.081s, 014.8C,00002191
2015-10-26 22:30:59 r, 16.86m,0000000015Hz,0000030570c,0000000.066s, 014.8C,00002191
2015-10-26 22:40:58 r, 16.76m,0000000016Hz,0000027889c,0000000.061s, 014.8C,00002191
2015-10-26 22:50:58 r, 16.67m,0000000018Hz,0000025364c,0000000.055s, 014.8C,00002191
2015-10-26 23:00:58 r, 16.51m,0000000021Hz,0000022127c,0000000.048s, 014.8C,00002191
2015-10-26 23:10:57 r, 16.41m,0000000023Hz,0000020168c,0000000.044s, 014.5C,00002191
2015-10-26 23:20:57 r, 16.35m,0000000025Hz,0000018963c,0000000.041s, 014.8C,00002191
2015-10-26 23:30:58 r, 16.25m,0000000027Hz,0000017342c,0000000.038s, 014.8C,00002191
2015-10-26 23:40:58 r, 16.22m,0000000027Hz,0000016937c,0000000.037s, 014.8C,00002191
2015-10-26 23:50:57 r, 16.19m,0000000028Hz,0000016413c,0000000.036s, 014.8C,00002191
